Change the Weather History Date:

Sunday, January 27, 2013

  Actual Average Record
Temperature  
Mean Temperature 22 °F -  
Max Temperature 32 °F 37 °F 63 °F (1974)
Min Temperature 12 °F 19 °F -3 °F (1982)
Degree Days  
Heating Degree Days 43    
Moisture  
Dew Point 1 °F    
Average Humidity 43    
Maximum Humidity 73    
Minimum Humidity 24    
Precipitation  
Precipitation 0.00 in - - ()
Sea Level Pressure  
Sea Level Pressure 30.37 in    
Wind  
Wind Speed 8 mph (WNW)    
Max Wind Speed 13 mph    
Max Gust Speed 23 mph    
Visibility 10 miles    
Events      
Averages and records for this station are not official NWS values.
T = Trace of Precipitation, MM = Missing Value Source: NWS Daily Summary

Daily Weather History Graph

Daily Weather History Graph

Search for Another Location

Airport or City:

Trip Planner

Search our weather history database for the weather conditions in past years. The results will help you decide how hot, cold, wet, or windy it might be!

Date:

Astronomy

Jan. 27, 2013 Rise Set
Actual Time 7:01 AM EST 4:53 PM EST
Civil Twilight 6:31 AM EST 5:23 PM EST
Nautical Twilight 5:57 AM EST 5:56 PM EST
Astronomical Twilight 5:24 AM EST 6:29 PM EST
Moon 5:45 PM EST (1/27) 6:51 AM EST (1/27)
Length of Visible Light 10h 51m
Length of Day
9h 52m
Full, 100% of the Moon is Illuminated
Jan 27
Full
Feb 3
Last Quarter
Feb 10
New
Feb 17
First Quarter
Feb 25
Full

Hourly Weather History & Observations

Time (EST) Temp. Windchill Dew Point Humidity Pressure Visibility Wind Dir Wind Speed Gust Speed Precip Events Conditions
12:52 AM 16.0 °F 5.3 °F -2.0 °F 45% 30.25 in 10.0 mi NW 8.1 mph 23.0 mph N/A   Clear
1:52 AM 16.0 °F 4.4 °F -0.9 °F 47% 30.27 in 10.0 mi NW 9.2 mph - N/A   Clear
2:52 AM 16.0 °F 6.3 °F -0.9 °F 47% 30.28 in 10.0 mi WNW 6.9 mph - N/A   Clear
3:52 AM 16.0 °F 3.6 °F -0.9 °F 47% 30.29 in 10.0 mi NW 10.4 mph 17.3 mph N/A   Clear
4:52 AM 16.0 °F 3.6 °F -0.0 °F 49% 30.30 in 10.0 mi WNW 10.4 mph - N/A   Clear
5:52 AM 14.0 °F 3.9 °F -0.0 °F 54% 30.32 in 10.0 mi West 6.9 mph - N/A   Clear
6:52 AM 12.9 °F 2.6 °F -0.0 °F 56% 30.33 in 10.0 mi West 6.9 mph - N/A   Clear
7:52 AM 15.1 °F 4.2 °F 1.0 °F 54% 30.36 in 10.0 mi West 8.1 mph - N/A   Clear
8:52 AM 19.0 °F 6.8 °F 1.9 °F 47% 30.38 in 10.0 mi WNW 11.5 mph 16.1 mph N/A   Clear
9:52 AM 21.9 °F 12.5 °F 1.0 °F 40% 30.39 in 10.0 mi NW 8.1 mph 19.6 mph N/A   Clear
10:52 AM 26.1 °F 15.6 °F 1.0 °F 34% 30.39 in 10.0 mi NW 11.5 mph - N/A   Clear
11:52 AM 30.0 °F 21.1 °F 1.9 °F 30% 30.38 in 10.0 mi WNW 10.4 mph 18.4 mph N/A   Clear
12:52 PM 30.0 °F 22.4 °F 1.0 °F 29% 30.37 in 10.0 mi WNW 8.1 mph 19.6 mph N/A   Clear
1:52 PM 32.0 °F 23.6 °F 1.0 °F 27% 30.37 in 10.0 mi West 10.4 mph - N/A   Clear
2:52 PM 32.0 °F 22.5 °F -0.0 °F 26% 30.37 in 10.0 mi WNW 12.7 mph 20.7 mph N/A   Clear
3:52 PM 32.0 °F 24.2 °F -0.9 °F 24% 30.37 in 10.0 mi NW 9.2 mph - N/A   Clear
4:52 PM 28.9 °F 22.8 °F -2.0 °F 26% 30.39 in 10.0 mi WNW 5.8 mph - N/A   Clear
5:52 PM 28.0 °F 22.8 °F -0.9 °F 29% 30.41 in 10.0 mi WNW 4.6 mph - N/A   Clear
6:52 PM 26.1 °F 20.5 °F -0.9 °F 31% 30.43 in 10.0 mi WNW 4.6 mph - N/A   Clear
7:52 PM 18.0 °F - 3.0 °F 52% 30.45 in 10.0 mi Calm Calm - N/A   Clear
8:52 PM 14.0 °F - 5.0 °F 67% 30.45 in 10.0 mi Calm Calm - N/A   Clear
9:52 PM 16.0 °F 10.4 °F 5.0 °F 62% 30.45 in 10.0 mi WNW 3.5 mph - N/A   Clear
11:52 PM 12.0 °F - 5.0 °F 73% 30.45 in 10.0 mi Calm Calm - N/A   Clear